GFSGL_con_lsi_000.txt.gz
Lid_Strength_Index
19 19 19 19 18 18 18 18 18 17 17 18 18 17 16 15 14 13 11 9 9 10 10 10 10 9 9 5 3 3 4 4 6 12 10 6 5 5 6 4 6 4 5
20 20 20 19 19 19 19 18 18 18 18 18 18 17 17 17 16 14 12 12 9 11 11 11 10 9 10 4 4 4 4 4 5 11 10 8 6 6 5 5 6 5 4
21 21 21 20 20 20 19 19 19 18 19 18 18 18 18 16 17 15 13 13 14 11 12 11 12 10 11 5 5 4 4 4 5 7 9 8 11 7 7 10 9 8 7
22 22 22 21 20 20 19 19 19 19 20 19 19 18 18 17 17 15 14 14 15 12 10 11 12 11 10 10 5 5 5 5 7 7 8 8 9 10 7 9 10 10 10
22 23 22 21 20 20 20 20 20 20 20 19 19 19 19 18 17 16 14 15 15 15 11 11 12 12 11 11 5 5 5 7 7 8 9 8 9 11 8 7 8 10 13
23 23 22 22 21 21 21 21 20 21 21 21 20 20 20 18 16 15 13 14 15 15 14 12 11 12 11 10 6 6 5 9 8 8 9 9 10 9 8 9 10 11 12
23 23 23 22 23 23 23 22 21 22 22 21 21 20 20 19 16 15 14 14 14 15 14 13 13 12 13 11 7 7 6 6 6 7 9 7 10 9 8 10 10 9 9
24 24 23 24 24 24 24 23 23 22 22 21 20 20 20 19 16 15 14 13 14 16 16 14 13 13 13 12 7 6 6 7 6 6 7 7 7 8 9 8 11 13 12
25 24 24 25 26 26 26 24 22 22 22 21 20 19 20 20 17 16 15 15 15 15 15 14 13 13 12 11 9 7 7 8 6 6 6 7 7 8 8 10 12 11 14
25 25 25 26 28 27 25 23 22 23 22 20 20 19 17 18 16 15 15 15 16 16 15 13 12 12 11 11 10 8 9 8 8 10 9 8 8 8 9 8 10 10 11
26 26 27 27 28 24 23 23 23 23 22 22 20 18 16 16 18 15 14 14 15 15 14 12 12 11 11 10 10 8 8 9 9 10 10 10 10 10 9 9 9 8 10
27 28 30 29 24 22 24 24 23 24 24 23 21 19 16 14 13 14 13 12 12 14 13 12 12 11 10 10 9 8 8 9 9 9 10 10 10 10 9 9 10 8 8
31 32 30 26 23 22 24 24 25 25 25 24 21 20 19 15 16 14 10 10 10 12 12 11 11 10 10 9 8 8 11 9 10 10 10 10 9 9 10 10 11 12 12
33 31 27 25 24 23 23 23 25 25 26 23 22 22 21 19 18 17 15 14 11 11 12 11 11 10 9 8 9 9 9 8 9 10 9 9 10 11 11 11 12 12 11
31 28 27 25 24 24 23 24 24 23 23 24 23 22 21 23 21 16 15 15 14 11 12 12 12 11 10 8 8 8 8 9 9 9 8 11 11 11 11 11 11 11 11
31 29 27 25 25 24 25 25 22 22 21 21 21 19 21 19 17 16 15 14 12 11 13 12 12 11 10 9 9 9 9 9 9 8 8 10 11 12 12 12 12 12 12
33 29 27 25 25 26 26 27 28 25 23 22 22 20 20 19 18 18 17 14 10 10 12 12 11 10 9 9 9 10 10 9 9 8 9 10 11 11 12 13 12 13 13
34 29 28 27 26 26 26 27 27 29 30 30 26 22 22 21 20 20 20 21 24 22 24 23 15 10 9 9 9 9 10 9 9 8 10 10 11 11 12 13 12 13 13
30 29 28 28 27 26 27 27 27 28 29 30 30 26 26 24 22 22 22 28 28 28 27 26 25 24 22 13 10 9 10 10 9 9 10 10 11 11 12 12 12 13 12
32 27 28 29 29 27 28 28 28 29 29 30 31 29 28 30 31 30 29 29 29 30 29 27 26 25 25 24 21 11 11 11 11 10 10 11 11 11 11 12 12 12 12
33 31 29 30 30 28 29 29 29 29 30 31 31 29 23 32 32 31 31 30 30 30 30 28 27 25 25 26 25 22 13 11 11 11 11 11 11 12 11 11 12 12 12
35 35 34 34 29 29 29 29 29 29 29 30 31 30 25 31 32 32 32 31 30 29 28 27 27 26 25 26 26 25 24 22 17 12 11 11 11 11 11 12 12 12 12
32 31 31 31 30 30 29 30 30 30 30 30 30 31 31 32 32 32 32 32 31 30 29 27 26 27 25 24 25 26 26 25 23 20 12 12 12 11 12 12 13 13 13
33 33 32 33 33 31 30 30 30 30 30 30 30 31 32 32 32 33 32 32 31 30 29 28 26 27 27 25 24 25 25 25 24 22 19 17 15 13 13 13 13 13 12
39 36 36 35 39 35 32 31 30 31 32 31 31 31 31 31 32 32 32 32 31 30 30 29 28 26 26 26 25 24 25 26 25 24 23 22 21 20 19 19 16 14 13
36 34 37 36 36 37 35 33 32 31 32 32 32 32 31 31 31 31 32 31 31 30 30 29 29 27 26 26 25 24 23 24 26 26 25 25 25 24 23 23 22 21 21

GFSGL_con_lsi_003.txt.gz
Lid_Strength_Index
21 22 22 22 21 21 20 20 19 19 18 18 18 18 17 17 17 17 17 17 16 14 10 8 6 6 8 8 9 9 10 11 5 11 8 3 3 4 4 3 5 4 5
22 22 23 22 22 22 21 20 19 19 19 18 18 18 18 17 18 18 18 17 16 14 12 11 6 6 9 10 10 10 10 10 5 8 6 4 4 4 4 4 5 4 4
23 23 23 23 23 22 21 20 20 20 19 19 19 19 18 18 18 18 18 17 16 14 12 11 8 6 10 11 10 10 11 7 3 6 6 4 4 4 4 5 5 4 4
24 24 24 23 23 22 21 21 21 21 21 20 20 19 18 19 19 18 18 18 16 14 13 11 10 7 10 11 11 12 11 6 5 6 6 5 5 4 5 6 6 5 8
25 25 24 23 23 22 22 22 22 22 21 21 20 18 19 20 19 18 18 18 16 15 13 12 10 10 9 10 12 14 12 11 6 6 7 6 6 6 7 6 6 6 7
25 24 24 24 23 23 23 23 23 22 22 21 19 19 20 19 17 15 15 16 15 15 13 12 11 12 11 10 12 11 11 11 7 6 7 7 8 7 6 6 6 7 9
25 26 26 25 25 25 24 25 24 24 23 21 19 19 20 19 16 15 14 15 14 15 14 12 14 13 13 11 12 12 11 10 5 6 8 7 9 6 6 7 8 8 8
26 27 26 26 27 26 26 26 25 24 22 20 20 20 20 19 15 14 14 15 15 15 14 14 15 14 13 12 14 14 13 8 6 5 6 6 7 6 6 6 8 11 11
27 27 27 27 28 28 29 27 25 24 23 22 20 21 22 21 16 14 13 15 15 15 14 13 14 15 13 13 14 15 14 10 7 7 6 6 6 6 6 8 10 11 12
28 28 27 28 30 30 28 26 25 24 22 21 22 21 20 20 16 13 12 14 16 16 15 14 14 14 13 13 13 14 14 12 8 11 8 7 7 7 8 7 8 9 10
28 28 29 29 30 29 26 26 26 24 22 24 23 22 21 18 17 14 12 13 15 15 15 14 14 13 13 12 12 13 14 11 8 10 8 8 8 7 7 7 7 7 9
29 31 31 32 29 26 28 27 25 24 24 24 24 22 20 19 17 14 13 13 12 14 14 13 14 12 11 10 11 11 11 11 8 8 8 9 9 8 8 7 7 6 6
34 35 33 30 28 27 27 27 25 23 23 23 22 22 22 20 17 16 16 14 13 14 12 12 13 11 10 11 11 11 12 11 9 9 9 8 8 8 8 9 9 11 12
37 33 29 29 28 27 26 25 24 23 23 22 23 24 24 20 20 19 17 16 15 15 15 15 11 11 11 12 13 12 11 9 9 9 9 8 8 8 9 9 10 10 11
32 29 30 29 29 27 25 24 22 21 20 22 23 23 22 23 20 16 15 16 17 17 16 16 16 13 12 13 13 12 10 9 9 9 9 10 10 10 9 9 9 10 10
32 31 30 29 29 27 26 24 20 19 18 18 19 19 21 19 17 17 16 16 15 14 14 16 16 12 13 13 13 12 9 9 9 9 9 10 10 10 10 10 10 11 10
38 32 31 29 29 28 27 26 27 24 21 20 21 20 20 19 19 19 19 19 18 19 19 22 19 14 11 11 11 10 9 8 9 9 9 10 10 10 11 11 11 11 10
40 31 31 31 31 29 27 27 26 28 29 28 24 22 21 21 21 20 21 24 27 26 25 24 25 24 23 21 10 9 9 9 9 9 10 11 11 11 11 11 11 11 11
33 33 32 31 31 29 28 27 27 28 29 29 28 27 24 24 23 23 23 28 29 28 27 25 26 25 25 24 23 11 10 10 10 10 11 11 11 11 11 11 10 11 11
36 30 30 34 31 30 29 29 28 28 29 29 29 30 25 29 31 30 29 29 29 28 27 25 26 26 25 25 24 23 11 11 11 11 11 11 11 11 11 11 11 11 11
36 36 31 34 34 31 30 30 29 29 30 29 29 28 21 30 31 31 30 29 28 27 27 25 25 26 24 25 25 25 22 11 10 10 11 11 11 12 11 11 11 11 11
38 38 38 39 32 31 31 30 29 29 30 30 29 28 24 30 30 31 30 29 28 26 25 24 24 25 25 24 25 26 25 24 22 16 11 11 11 11 11 10 11 11 12
34 34 34 35 34 32 31 32 30 29 30 31 30 30 29 30 30 30 30 30 28 26 25 25 23 25 24 24 23 25 26 26 24 22 17 12 11 11 11 11 11 11 12
35 35 34 36 36 34 34 33 31 30 30 30 31 30 30 29 30 30 30 29 28 27 26 25 24 24 24 24 23 23 25 25 24 23 20 16 13 13 12 11 11 11 11
40 37 37 37 41 38 36 36 32 34 31 30 31 31 31 30 29 30 29 29 28 27 27 25 25 23 23 24 24 23 23 25 25 24 23 22 22 20 18 14 13 13 13
37 36 38 37 37 39 39 37 37 34 33 31 31 32 32 31 30 30 30 29 29 28 27 26 26 25 23 23 23 23 21 22 25 25 25 25 25 25 23 22 21 20 18

GFSGL_con_lsi_006.txt.gz
Lid_Strength_Index
22 23 23 23 22 22 22 22 21 20 20 19 19 18 18 18 17 17 17 17 17 16 17 17 16 14 11 8 5 6 10 10 13 12 10 9 9 2 4 2 5 3 5
23 23 23 23 23 23 23 22 21 21 20 20 19 19 19 19 18 18 18 17 16 17 17 17 16 12 11 9 6 6 8 9 11 12 10 9 10 2 4 2 3 2 4
24 25 24 24 24 23 23 22 22 22 21 20 20 20 20 19 19 18 17 16 17 18 18 18 17 14 12 11 6 7 8 9 9 12 11 10 10 2 4 4 4 3 4
25 25 25 24 24 24 23 23 23 22 22 21 21 21 20 19 18 17 16 16 17 18 17 17 16 15 13 11 10 8 8 11 12 12 12 10 9 4 4 5 5 4 5
26 26 25 24 24 24 23 23 23 22 22 22 22 21 21 20 17 17 17 17 18 18 17 17 16 13 12 11 10 8 8 12 13 13 13 11 7 4 5 5 5 6 6
26 25 25 25 25 25 24 24 24 24 23 23 22 22 21 18 15 15 15 16 16 16 16 15 15 13 12 11 9 7 7 12 14 14 14 13 8 4 4 5 6 7 8
25 26 27 26 26 26 26 26 25 25 24 23 22 22 21 19 16 15 15 15 15 15 15 15 14 13 12 11 10 8 8 9 10 13 14 14 6 4 5 6 6 7 8
26 27 27 27 28 27 27 27 27 25 24 24 24 22 21 20 17 16 15 16 15 15 15 15 15 14 13 12 10 9 10 11 11 12 12 11 10 3 4 5 5 7 6
28 28 28 28 29 29 30 28 27 25 25 25 23 22 22 22 18 16 16 16 15 14 14 14 14 14 13 11 11 12 12 12 11 11 11 10 9 4 4 5 8 8 9
28 28 28 28 30 30 29 29 26 27 25 24 23 21 21 22 18 16 16 16 15 15 14 14 13 14 13 11 11 13 15 14 13 13 13 8 6 6 6 5 6 8 9
29 29 29 30 31 30 29 28 28 27 25 25 22 20 19 19 19 17 15 16 17 17 16 14 14 13 11 11 11 13 13 12 13 14 14 7 6 6 6 6 6 7 9
30 31 32 33 32 29 30 29 28 27 26 24 21 20 19 19 19 17 16 15 14 16 16 14 13 12 11 11 12 11 12 12 13 14 15 9 7 7 6 6 6 6 6
34 35 36 32 30 29 30 29 28 27 25 23 20 21 21 20 20 18 17 15 14 15 15 14 13 12 12 12 11 11 12 13 14 15 14 9 7 6 6 7 7 7 7
35 31 29 30 30 28 27 26 27 26 25 21 21 22 22 21 21 19 18 18 16 16 16 17 15 14 14 13 13 11 12 13 14 14 13 8 7 8 8 8 8 8 9
32 29 30 30 31 29 27 28 25 23 20 20 20 21 22 22 21 18 18 19 18 16 16 17 17 16 17 13 12 12 13 13 13 13 11 10 9 9 9 8 8 9 10
31 30 30 29 29 28 29 28 23 20 18 16 16 18 19 18 18 18 18 18 17 17 19 19 17 18 18 14 13 12 13 13 13 11 10 10 10 10 10 10 9 9 10
35 32 31 30 30 30 30 30 30 25 19 18 18 17 17 18 19 19 19 20 19 21 24 24 24 23 23 22 20 16 13 13 11 10 10 10 10 10 11 10 10 10 10
40 32 34 33 32 32 31 31 30 29 28 26 23 20 18 19 19 20 20 23 26 24 25 25 25 24 24 24 23 22 21 15 11 10 10 10 10 10 11 11 10 10 10
34 35 36 36 34 33 32 31 30 29 28 28 27 24 21 21 21 22 23 27 28 27 27 25 24 24 24 24 24 24 23 23 11 10 11 11 11 11 10 10 10 10 11
38 31 33 38 35 34 32 31 30 30 29 29 28 29 23 26 28 28 28 28 28 27 26 25 24 23 24 24 25 25 25 24 13 11 11 11 11 11 11 11 11 10 10
37 38 33 38 38 36 36 34 32 31 31 30 29 28 19 28 29 29 29 29 29 27 26 26 23 23 24 24 24 26 26 25 23 17 11 11 11 12 11 10 11 11 11
37 39 40 40 35 33 35 34 33 33 32 31 30 28 22 28 28 28 28 29 28 27 25 25 24 23 23 24 24 25 26 26 26 24 22 12 12 11 11 11 11 11 11
34 34 35 36 35 34 34 36 33 32 31 32 31 29 29 29 28 28 28 28 28 27 26 24 25 23 22 23 23 23 26 26 26 24 24 19 12 12 12 11 12 12 12
34 34 34 37 37 37 37 37 33 32 32 32 32 31 30 30 29 28 28 28 27 26 25 24 23 24 22 22 23 22 23 25 25 24 24 21 13 12 12 12 12 11 11
39 36 36 38 43 40 39 38 33 37 35 32 32 31 30 30 30 29 28 28 27 26 26 25 23 23 22 22 23 23 21 24 25 24 24 24 23 21 17 13 13 12 12
37 36 38 38 39 41 41 38 39 36 37 33 33 32 31 30 30 30 29 28 28 27 26 25 24 24 23 21 21 22 21 21 24 25 25 25 25 25 24 22 20 16 14

GFSGL_con_lsi_009.txt.gz
Lid_Strength_Index
21 22 22 22 22 22 22 22 22 22 21 21 21 20 20 19 18 18 17 17 17 16 15 15 14 13 14 14 14 13 11 11 9 6 5 5 6 8 8 7 7 1 2
22 22 23 23 23 23 23 23 22 22 22 22 21 21 20 20 19 19 19 18 18 18 16 15 14 13 14 14 14 12 11 10 8 8 5 6 7 7 8 8 9 1 1
23 24 24 24 24 24 23 23 23 22 22 22 22 22 21 21 20 20 19 19 18 17 15 16 15 15 16 16 16 14 11 10 7 6 6 6 7 8 9 9 8 5 3
24 25 25 24 24 24 24 23 23 23 23 23 23 22 22 21 21 20 20 19 18 16 16 16 16 16 16 16 16 15 11 11 9 7 8 8 9 10 9 10 11 3 4
25 25 25 24 25 24 24 24 23 24 24 24 23 23 22 22 21 20 19 17 16 15 15 15 15 15 15 15 15 14 12 11 11 8 8 9 11 12 10 10 10 5 5
25 25 25 25 25 25 25 24 25 25 25 25 24 23 23 22 20 18 16 16 15 16 16 16 15 14 14 13 13 12 12 12 12 9 11 11 12 13 12 11 10 7 7
24 25 26 26 27 26 26 26 26 26 26 25 24 24 24 23 19 18 16 15 16 16 16 16 15 14 14 14 13 12 11 9 9 9 12 12 13 12 13 13 12 8 6
25 27 27 27 28 27 28 27 27 26 26 25 25 25 23 22 19 18 15 15 16 16 15 15 15 14 13 13 14 14 13 11 10 8 11 11 11 12 13 13 13 7 5
27 27 27 28 29 29 30 28 27 27 27 27 24 24 25 24 20 16 15 17 17 16 15 14 14 14 12 12 13 14 14 13 10 8 10 10 11 10 12 14 16 8 9
27 28 28 28 30 30 29 29 28 28 27 25 24 24 23 23 18 15 15 17 18 18 16 15 14 14 12 11 13 13 15 14 12 11 12 12 12 12 12 13 14 12 8
28 29 29 29 30 31 30 29 29 29 27 27 25 23 21 20 19 15 15 17 18 18 17 16 14 13 12 10 10 12 13 12 11 10 12 13 13 14 13 12 10 13 8
29 30 31 32 32 29 32 30 29 28 28 26 24 22 21 20 17 16 15 15 15 18 18 16 15 13 12 11 10 10 10 11 11 12 13 14 13 14 13 11 9 8 5
31 32 32 31 30 30 32 30 29 28 27 25 23 23 23 20 18 16 15 16 17 18 17 16 14 13 12 12 11 10 10 10 11 11 14 14 13 13 13 10 7 5 5
33 30 29 30 30 29 28 27 28 26 25 23 23 24 23 20 18 17 17 19 18 18 17 17 15 14 13 13 13 12 10 9 9 11 14 12 12 13 14 7 6 6 7
31 30 30 29 31 28 27 27 25 23 21 22 22 22 22 20 18 16 18 20 20 18 19 19 17 16 15 14 14 12 10 9 9 10 12 13 13 14 11 6 6 7 8
30 31 31 30 30 27 28 28 24 21 20 19 19 19 18 15 14 15 17 18 18 17 22 21 21 21 20 19 18 18 14 10 10 11 11 12 13 13 9 7 8 8 9
32 31 31 30 29 30 30 30 30 27 23 21 20 18 15 15 15 16 17 19 19 20 24 23 22 22 22 21 20 20 20 18 17 12 12 12 12 11 10 10 9 9 10
32 32 32 31 31 31 31 31 31 32 32 29 24 19 17 16 16 16 18 22 26 24 24 25 23 22 22 22 21 22 22 21 20 20 14 12 11 11 11 11 10 10 11
31 32 32 33 33 32 32 32 32 32 32 31 28 23 21 18 18 19 20 25 26 26 25 24 24 22 22 22 22 22 23 24 24 22 20 12 11 11 11 10 10 11 11
32 31 32 33 34 33 33 33 32 33 31 31 30 28 22 24 26 26 25 26 26 26 25 25 24 23 22 23 23 23 24 25 25 24 24 12 11 11 11 11 10 11 11
32 32 32 34 35 35 35 35 34 33 33 33 31 29 17 27 27 27 27 26 27 26 25 25 24 24 22 23 24 23 24 25 25 25 25 23 11 12 11 10 11 11 11
31 33 35 35 34 33 35 34 34 34 33 33 31 29 22 27 27 27 27 26 27 26 25 25 24 24 23 22 23 23 23 25 26 26 26 24 21 11 12 11 11 11 11
32 33 33 34 34 33 33 35 34 33 32 33 32 30 30 30 28 27 27 27 26 26 25 24 23 24 23 21 21 22 22 25 26 25 26 25 22 13 11 11 12 12 12
30 31 31 35 34 35 35 36 33 33 33 32 33 32 31 31 30 28 28 27 26 26 25 24 23 24 23 21 21 21 20 22 24 24 24 24 23 14 11 12 11 11 11
32 32 32 34 37 36 36 36 33 37 36 33 32 32 32 30 29 29 28 28 27 26 25 24 23 23 23 21 21 21 20 21 24 24 24 25 25 23 20 13 12 12 11
33 33 35 37 37 39 39 36 37 35 36 33 33 33 32 31 30 29 28 28 28 26 25 24 23 23 22 19 20 20 20 19 23 24 24 25 26 26 24 23 20 15 12

GFSGL_con_lsi_015.txt.gz
Lid_Strength_Index
15 15 16 16 17 17 17 18 18 18 18 19 18 18 19 19 18 19 19 18 18 18 17 17 16 16 16 16 15 15 15 15 17 16 14 13 12 12 10 8 7 7 7
15 15 17 17 18 18 18 18 18 19 19 19 19 19 19 19 19 20 20 19 19 19 18 18 18 17 17 17 16 17 16 16 17 17 15 14 14 12 11 10 8 8 8
15 16 17 18 19 19 19 19 19 19 19 19 20 20 20 20 20 20 20 20 20 19 19 18 18 17 17 17 17 17 16 16 15 16 16 14 13 12 11 9 7 7 7
16 17 19 19 19 19 19 20 20 20 20 20 20 20 21 21 21 20 20 20 20 19 18 17 17 17 17 17 16 16 16 16 15 16 16 15 14 12 12 11 9 8 7
18 19 19 19 19 19 20 21 20 21 21 21 21 21 21 21 20 20 20 20 19 19 17 17 17 17 15 15 16 16 16 15 16 16 17 16 15 14 12 11 9 6 7
19 19 19 20 20 21 21 21 22 22 22 21 22 22 21 21 19 18 18 19 19 19 19 18 17 16 16 14 14 14 12 15 16 16 16 16 15 14 13 12 11 9 10
19 19 20 21 22 21 22 22 23 23 22 22 22 21 21 21 19 18 17 18 18 18 18 18 17 16 15 16 15 13 13 13 12 13 15 14 14 13 12 13 12 12 9
19 21 21 21 22 22 23 24 24 23 23 22 22 22 22 21 19 18 18 18 18 18 18 17 17 16 16 16 15 15 15 15 13 13 13 13 12 12 12 12 11 10 10
20 21 22 22 23 24 24 24 23 23 23 23 22 22 22 22 20 18 17 18 18 18 17 16 16 16 15 14 15 16 16 15 13 12 11 11 10 10 11 12 13 11 10
21 22 22 23 24 25 25 24 23 24 23 23 22 22 22 22 19 18 17 18 18 17 16 15 15 16 15 13 15 17 18 16 15 14 12 11 11 11 10 11 12 13 11
21 23 23 24 24 24 24 24 25 25 24 24 24 22 21 20 20 18 16 17 17 16 17 17 17 16 14 13 13 16 16 14 14 14 13 12 11 12 12 12 11 11 12
23 24 25 25 25 25 26 26 26 25 26 24 23 21 20 20 19 18 16 15 14 17 18 18 17 15 13 13 14 12 11 12 13 13 13 13 12 12 12 12 11 10 9
24 25 26 26 25 26 27 26 25 25 24 23 22 22 21 20 19 17 16 14 14 17 17 16 16 15 15 15 14 13 13 12 13 14 14 13 12 11 10 11 10 9 9
25 25 26 26 27 26 25 25 24 24 23 23 22 22 21 20 19 18 17 16 16 17 17 20 17 16 16 16 16 15 16 15 15 14 13 12 11 11 11 10 11 10 10
25 25 26 26 26 26 24 24 24 23 22 23 22 22 22 22 19 16 16 17 17 17 19 21 20 20 19 19 18 17 17 17 17 16 16 15 13 11 11 10 10 11 13
25 25 26 26 26 25 25 26 24 23 22 21 20 20 19 18 16 15 15 15 16 16 22 22 21 21 21 20 20 19 18 18 18 17 17 16 15 13 11 10 10 10 11
24 25 26 26 26 26 25 25 26 25 23 22 21 20 18 17 16 15 16 16 18 19 22 21 22 22 21 20 20 20 19 19 18 18 18 18 17 16 15 11 11 10 11
25 25 26 26 26 26 26 26 25 24 24 24 22 20 18 17 17 17 17 20 23 21 21 21 22 22 22 21 21 21 19 19 20 19 19 20 19 19 18 16 11 10 11
26 26 26 26 27 26 27 27 26 26 25 25 24 21 21 18 18 19 18 23 24 23 21 22 21 21 22 21 21 21 19 20 19 19 21 21 21 20 20 18 16 14 12
26 27 27 28 29 27 27 26 26 26 25 25 24 24 25 23 24 24 23 23 23 22 22 22 22 21 21 21 21 21 20 20 19 20 21 21 21 21 20 20 19 19 13
28 29 28 28 27 27 26 26 26 26 26 26 25 25 19 26 25 25 24 24 23 22 22 22 22 22 21 21 21 21 20 20 19 20 22 22 22 22 21 21 21 21 12
28 28 28 28 27 27 27 26 26 26 26 26 25 25 22 25 26 26 24 23 23 22 22 22 22 22 21 21 21 20 20 20 19 21 22 22 22 21 21 21 21 17 10
28 27 27 28 27 28 27 27 26 26 26 26 26 26 26 27 27 26 25 23 23 23 22 22 22 22 21 21 20 18 19 19 19 21 22 22 22 22 22 22 20 12 10
27 27 27 27 28 27 27 27 27 27 26 26 26 26 27 28 27 26 25 24 24 24 23 22 23 22 22 21 19 18 18 18 19 20 21 23 23 23 24 23 22 12 12
26 26 26 27 27 26 27 26 26 27 27 26 27 26 27 26 26 26 25 25 25 24 25 23 22 22 21 21 19 18 17 17 19 20 21 22 23 24 25 25 24 21 12
25 26 26 27 26 27 26 26 27 26 27 27 27 27 27 27 26 26 26 25 26 26 24 23 22 22 22 20 19 16 16 17 18 20 21 22 23 24 25 26 26 24 22

GFSGL_con_lsi_021.txt.gz
Lid_Strength_Index
15 15 15 15 16 17 17 17 18 18 19 19 19 20 20 20 20 21 21 20 21 20 20 20 20 19 20 20 19 19 19 19 21 20 17 17 17 17 17 16 15 15 15
14 15 16 17 18 18 18 18 19 19 19 19 20 20 20 20 20 21 21 21 21 21 20 20 20 20 21 20 20 20 20 19 20 21 19 19 18 17 17 17 16 15 15
15 16 16 17 18 18 18 19 19 20 20 20 20 20 20 20 21 21 21 21 21 21 21 21 21 21 21 21 20 20 19 19 19 20 20 19 18 17 17 16 16 15 14
15 16 16 17 17 17 19 19 20 20 20 21 20 20 21 21 21 21 20 21 21 21 21 21 21 21 21 20 20 19 19 20 19 20 20 19 18 16 16 17 18 15 16
15 16 16 16 17 19 19 19 20 20 20 20 21 21 21 21 21 21 21 21 20 21 20 20 20 19 18 18 19 19 19 19 19 19 19 18 17 17 17 16 17 16 14
15 15 16 17 19 19 19 19 20 21 20 20 21 21 21 21 19 18 19 20 20 20 20 20 19 19 19 17 16 16 16 18 19 18 18 18 18 17 17 17 17 16 17
15 16 17 18 19 19 19 20 20 20 20 20 20 20 21 20 18 17 17 18 19 20 20 19 19 19 19 18 17 16 16 15 14 16 17 17 17 16 16 17 16 16 17
16 17 18 19 19 19 20 20 20 20 20 21 20 20 20 20 17 17 17 18 19 19 19 19 19 19 18 18 18 18 17 17 16 15 16 16 15 14 14 14 15 15 15
17 17 19 19 19 20 20 20 20 20 20 20 20 20 20 20 17 17 18 18 19 19 19 18 18 18 17 16 17 18 18 17 15 14 13 13 12 11 10 13 15 16 17
17 17 19 19 19 20 20 20 19 19 20 20 20 20 20 21 18 17 17 18 22 20 19 18 17 18 16 16 17 18 19 19 18 17 16 16 15 14 12 12 13 16 16
18 19 20 19 20 20 20 20 20 20 20 21 21 21 21 21 20 17 17 18 20 20 19 19 19 17 16 15 15 17 19 16 17 20 20 18 16 15 13 12 13 14 15
20 20 20 20 20 21 22 22 20 21 22 22 23 23 21 20 19 17 17 17 17 22 20 19 19 16 17 16 16 16 15 16 20 21 21 19 18 16 15 14 12 12 11
21 21 22 21 22 22 22 23 23 22 23 23 23 23 21 20 20 18 17 17 17 18 19 18 17 18 18 18 18 17 18 20 21 21 21 18 17 16 15 15 14 13 12
21 22 23 23 24 23 22 23 23 23 23 23 22 22 21 21 20 20 20 19 18 19 19 22 20 19 19 19 20 19 20 20 20 20 19 18 17 16 17 16 16 16 16
21 23 23 23 24 24 23 23 23 22 21 22 21 22 22 21 20 19 19 20 22 19 24 28 25 22 22 22 22 21 21 20 20 18 19 19 18 18 18 17 17 18 18
21 23 23 23 23 23 23 23 20 20 18 18 18 20 20 18 17 16 17 18 18 18 30 31 25 24 23 23 23 22 22 21 19 18 19 18 18 18 18 18 18 19 20
21 22 22 23 24 24 24 23 23 20 17 17 17 17 18 17 16 17 17 19 19 22 33 31 27 25 25 24 23 23 23 20 18 18 19 18 18 18 19 20 20 20 20
21 22 22 24 23 22 21 21 21 21 21 21 17 17 17 16 16 17 19 22 28 28 34 33 31 27 26 25 24 24 22 20 19 19 19 18 18 19 20 20 20 21 21
20 22 22 23 22 23 22 22 21 20 21 22 23 19 18 16 17 18 22 28 32 33 35 34 32 29 26 25 25 24 22 20 20 20 19 18 18 19 20 20 20 20 20
19 20 22 22 22 23 23 23 22 22 23 24 23 25 27 26 28 30 31 35 36 34 34 34 32 30 28 27 25 23 21 20 20 19 19 18 19 19 20 20 21 21 21
19 20 21 22 22 21 22 22 22 23 24 24 25 26 23 27 29 30 33 35 35 36 34 35 34 30 28 27 26 23 22 21 20 19 18 18 19 20 20 20 21 21 21
19 20 20 21 22 22 22 23 23 23 24 25 26 25 19 28 30 31 33 34 35 36 36 35 35 31 29 28 26 24 22 21 19 19 17 19 20 20 20 21 21 22 22
20 20 21 22 22 23 23 24 24 25 26 26 26 27 28 30 31 33 35 35 36 38 36 36 37 32 28 27 25 24 22 20 19 17 18 19 20 21 21 22 22 22 22
21 22 22 24 24 24 25 25 25 26 26 26 27 28 29 30 33 33 35 38 39 38 36 35 36 33 30 28 25 23 21 19 17 15 17 19 20 21 21 22 22 23 23
22 23 24 24 25 26 26 26 26 26 26 27 28 28 29 30 31 34 36 37 37 38 35 34 35 32 30 29 27 25 21 18 15 15 17 18 20 21 22 22 22 23 23
24 24 25 25 26 26 26 26 26 26 26 27 28 28 29 29 30 33 34 35 35 35 34 33 32 32 30 27 25 21 18 15 12 15 17 18 20 21 22 22 23 23 24

GFSGL_con_lsi_024.txt.gz
Lid_Strength_Index
14 14 14 15 15 15 17 17 17 18 18 18 18 19 19 20 20 20 20 20 21 20 20 20 19 19 20 20 19 19 20 20 22 20 19 18 18 18 17 17 17 17 17
14 15 15 16 16 16 17 17 18 18 18 18 19 19 20 20 20 21 21 20 21 21 20 20 20 19 20 20 19 20 20 20 21 23 20 20 19 18 18 18 17 17 17
15 16 16 17 17 16 16 17 18 18 18 19 19 19 20 20 20 20 21 21 21 21 20 20 21 20 20 20 20 20 20 19 20 21 21 19 19 18 18 18 18 17 16
15 16 16 16 16 16 16 17 17 18 19 19 19 19 20 20 20 20 21 21 21 21 20 20 20 20 20 20 20 19 19 20 20 20 21 20 19 18 18 19 18 16 17
15 16 15 15 15 15 17 17 18 18 18 19 20 20 20 20 20 20 20 21 20 20 19 19 19 19 18 18 18 19 19 20 20 20 20 20 19 19 18 17 18 18 17
15 15 15 15 16 17 18 18 18 18 19 19 20 20 21 20 17 17 19 19 19 19 19 18 18 18 18 17 16 16 16 18 19 19 19 19 19 18 17 17 18 19 21
15 14 16 16 17 18 18 18 18 19 19 19 20 20 20 20 15 15 16 18 18 18 17 18 18 17 18 18 17 16 16 15 15 17 18 18 18 17 17 18 18 18 18
15 15 16 17 18 19 19 19 19 19 20 20 21 20 20 19 15 14 14 17 17 17 17 17 18 18 18 17 17 18 18 17 16 16 17 17 16 15 16 15 16 15 15
17 16 17 17 18 19 19 19 19 19 20 20 19 20 19 19 14 14 15 17 18 18 18 17 17 17 16 15 17 18 17 16 15 15 15 14 13 13 14 16 19 20 21
18 18 18 18 18 19 19 19 19 19 20 20 19 19 20 21 15 14 15 19 20 19 18 18 17 17 16 15 16 17 19 18 18 18 17 18 17 18 16 17 18 20 19
18 19 18 18 18 18 18 19 20 20 20 20 20 20 21 20 18 15 15 19 20 20 19 19 18 17 16 14 14 16 18 16 17 19 21 20 19 19 18 17 17 17 17
19 20 19 19 19 19 19 20 20 21 21 21 21 22 21 21 20 16 15 16 17 20 20 19 18 17 15 15 16 16 16 16 21 22 22 22 21 20 18 17 16 15 15
20 19 19 19 19 20 21 21 21 21 21 22 22 22 23 22 21 17 16 15 16 18 19 18 17 17 18 18 18 17 18 21 22 23 23 21 20 19 18 18 15 15 15
18 19 19 19 20 20 20 20 21 22 22 22 22 23 23 22 21 18 18 18 16 17 18 21 21 19 19 19 21 20 20 20 21 22 21 20 19 19 19 16 17 17 17
18 19 20 19 20 20 20 21 20 21 20 22 21 22 22 22 21 18 19 20 21 20 26 28 25 23 23 23 22 21 20 20 21 20 20 21 21 20 19 16 16 17 20
19 20 20 21 21 21 21 21 18 18 17 17 18 19 20 18 18 16 16 16 16 18 30 31 26 25 24 24 23 21 21 21 20 20 21 21 21 20 18 17 17 19 20
18 19 21 21 21 22 22 22 22 19 17 17 16 17 17 17 16 15 15 15 16 22 34 32 28 26 25 24 23 23 23 22 21 21 21 21 20 18 18 18 18 19 20
17 17 20 20 21 22 22 22 21 22 21 19 16 17 16 15 15 14 15 18 23 29 34 34 32 29 26 25 24 24 24 23 23 22 22 21 19 18 17 19 19 20 20
17 17 19 19 21 21 22 22 21 20 20 19 19 17 15 14 15 15 16 27 29 31 33 32 31 29 27 27 27 26 26 25 24 23 22 21 19 17 18 19 19 20 20
17 16 18 19 20 22 22 21 20 20 21 21 19 20 19 17 21 26 29 30 32 30 30 31 31 31 30 31 29 28 27 25 24 23 22 19 18 17 18 19 20 21 21
17 17 18 19 19 20 20 20 19 20 20 19 21 21 20 21 25 27 29 31 31 29 30 31 31 31 33 34 31 29 28 26 24 23 21 19 17 18 18 19 20 20 21
16 17 17 18 18 19 19 19 19 20 20 22 23 19 17 25 26 28 29 31 29 30 32 33 32 33 33 33 31 29 28 27 24 22 21 19 17 18 19 20 20 21 21
16 17 18 18 18 18 19 19 20 20 22 23 21 19 25 26 27 28 28 29 30 32 34 35 34 33 33 33 31 29 29 27 24 22 21 18 17 19 20 21 21 22 22
19 19 20 20 20 20 20 21 22 22 22 23 23 25 26 27 27 27 28 30 31 33 34 34 34 34 32 32 31 29 27 26 23 20 18 18 18 19 20 21 21 21 22
20 21 21 21 21 22 22 23 24 23 23 24 26 27 27 27 27 28 29 30 32 32 33 35 35 34 33 33 31 29 27 23 20 18 16 17 18 19 20 21 21 22 22
22 22 23 22 23 24 24 25 25 25 25 26 26 26 26 26 27 28 29 31 30 31 33 34 35 33 32 30 29 25 20 18 17 13 19 17 18 19 20 21 22 22 22

GFSGL_con_lsi_027.txt.gz
Lid_Strength_Index
14 13 13 13 14 14 15 16 16 16 17 17 17 18 18 19 19 19 20 20 20 20 20 20 20 20 20 20 20 20 21 21 23 21 19 19 19 19 18 18 18 18 18
13 14 14 14 14 14 15 16 16 17 17 17 18 18 18 18 19 19 20 20 21 21 21 20 20 20 21 21 21 21 21 21 21 22 20 20 19 19 19 19 18 17 17
14 14 14 15 16 15 14 15 16 17 18 18 18 18 18 19 19 19 19 20 20 20 20 20 21 21 21 21 21 21 20 19 20 21 21 19 19 18 18 17 17 17 16
15 15 15 15 16 15 15 15 16 17 18 18 18 18 18 18 19 19 19 20 21 21 20 20 21 21 21 21 20 20 19 20 20 20 20 20 19 17 17 18 18 17 17
14 15 15 15 15 15 16 16 16 17 17 17 18 18 18 19 19 19 20 20 20 21 20 20 20 20 18 18 19 19 19 20 19 20 19 19 18 18 18 18 18 18 18
15 15 15 16 16 16 16 17 17 17 18 18 18 19 20 19 16 16 18 20 20 20 21 20 20 19 18 16 15 15 16 20 21 20 19 18 18 17 17 18 18 19 20
15 15 15 15 16 16 17 17 17 18 18 19 19 19 19 19 15 15 16 19 20 20 20 19 19 17 18 18 16 15 15 15 14 16 18 18 18 17 17 18 18 18 18
16 16 17 16 16 17 18 18 18 18 19 19 19 19 19 19 14 14 16 19 20 19 18 18 18 18 18 18 18 18 18 16 16 16 16 16 16 15 15 15 16 17 18
16 17 17 17 17 19 19 19 19 18 19 19 19 19 19 19 14 14 15 19 18 18 18 17 17 18 17 16 17 19 18 17 14 13 13 13 13 13 13 16 20 21 22
16 16 18 17 17 19 18 19 18 18 18 18 19 19 19 19 14 14 15 17 18 18 18 17 16 18 17 16 18 21 20 18 17 18 17 15 16 17 16 17 19 22 22
18 18 19 19 19 19 19 19 19 18 19 20 19 20 19 19 16 14 14 17 18 18 18 18 18 16 16 16 16 18 19 16 17 18 20 19 19 18 18 18 18 19 21
19 19 20 19 19 19 19 20 19 19 20 21 21 21 20 19 16 14 14 16 16 19 19 19 18 17 16 16 16 16 16 16 22 22 22 21 20 20 19 18 17 17 17
19 19 19 19 18 17 19 20 20 20 20 21 22 22 22 21 18 14 14 15 16 19 18 18 17 16 17 18 18 18 18 20 22 23 22 21 19 18 18 18 17 17 17
17 18 18 19 18 18 18 18 19 20 20 20 21 21 22 22 20 17 16 16 16 17 16 18 18 19 19 19 21 20 21 21 21 21 21 19 18 19 19 18 20 19 19
16 17 18 19 19 18 18 18 18 18 18 19 19 20 22 22 21 18 17 17 17 18 22 24 23 23 24 23 23 22 22 22 22 21 20 20 20 19 19 19 19 19 20
19 16 17 18 19 19 19 20 15 16 16 15 16 18 19 18 17 16 15 15 16 16 24 25 24 24 24 24 24 24 23 23 22 21 21 20 20 20 20 20 19 20 20
21 20 17 18 18 19 20 20 21 17 15 15 15 16 17 17 16 15 15 15 15 16 25 25 25 24 24 24 24 24 24 23 21 22 21 21 21 21 21 21 20 19 20
22 20 19 17 17 18 19 20 20 20 20 19 15 16 16 16 15 15 15 15 18 23 27 26 26 26 26 26 26 25 25 24 23 22 22 22 23 22 22 21 21 20 19
22 22 19 16 18 18 18 19 20 20 20 19 18 16 16 15 14 14 14 19 24 27 28 28 28 27 27 27 27 28 28 27 25 26 25 24 23 22 21 21 20 20 19
22 22 20 17 19 19 20 19 20 20 20 19 18 18 17 16 16 16 24 23 24 26 27 27 29 29 29 30 31 31 29 29 27 27 25 23 22 21 21 20 20 20 20
22 21 19 16 18 19 19 19 19 19 19 20 19 17 14 16 17 24 24 24 25 26 27 28 29 30 31 32 33 32 31 28 28 27 25 24 22 22 21 19 20 19 19
20 20 18 17 18 18 18 17 17 17 17 18 18 16 12 21 23 24 24 25 26 26 27 28 30 30 30 31 32 32 31 30 29 28 24 23 23 21 19 19 20 20 20
18 18 17 17 17 17 17 16 16 16 17 18 17 16 21 21 22 24 25 26 27 29 31 31 31 32 31 32 32 32 32 29 28 27 25 24 22 20 20 20 20 21 21
18 17 18 19 18 18 18 18 18 18 20 19 17 21 22 23 24 26 26 27 29 30 31 32 32 31 31 31 32 32 30 30 28 27 25 23 20 19 20 21 20 20 21
20 20 20 19 19 20 20 20 21 21 19 20 23 24 25 25 26 27 27 28 29 29 30 30 30 30 30 30 30 30 30 26 26 24 21 18 21 21 21 21 21 21 21
22 22 21 21 22 22 22 22 21 21 23 24 24 25 25 25 26 27 28 28 28 28 28 29 29 29 29 30 30 28 24 20 20 18 15 18 22 20 21 22 21 21 21

GFSGL_con_lsi_030.txt.gz
Lid_Strength_Index
15 14 14 14 14 15 15 15 14 15 15 16 16 16 17 18 18 18 18 19 19 20 19 20 20 20 20 20 20 20 20 20 23 21 20 20 20 20 19 18 17 17 17
14 15 15 14 15 15 14 14 14 15 15 15 15 16 16 17 18 18 19 19 19 20 20 20 20 20 21 21 20 20 20 20 21 23 21 21 21 20 20 19 18 16 16
15 15 15 16 16 14 14 14 15 15 15 15 15 16 16 17 18 18 18 19 19 19 19 19 20 20 20 21 21 21 21 20 21 23 23 21 20 20 19 18 17 17 15
15 15 15 15 15 15 14 15 15 16 16 16 16 16 16 16 17 18 18 19 19 19 20 19 20 20 20 21 21 21 21 21 21 22 22 21 20 19 18 19 19 17 17
14 14 15 15 15 15 15 15 16 16 16 16 16 17 17 17 17 18 18 19 19 20 19 19 20 20 18 19 20 21 21 21 21 21 21 20 20 19 19 18 19 18 18
13 14 14 14 16 15 15 16 16 16 16 16 17 17 18 17 15 15 17 19 19 20 20 20 20 20 18 17 17 17 18 22 24 23 21 20 19 18 18 18 19 19 20
13 13 14 14 14 15 15 16 16 16 16 17 17 17 18 17 15 14 15 18 19 20 19 20 20 20 20 18 16 15 15 15 15 19 22 19 19 18 18 18 18 18 18
14 13 15 15 15 15 16 16 16 17 17 18 17 17 18 18 15 13 14 18 19 19 19 20 20 20 19 19 19 18 18 18 17 17 18 18 18 17 16 16 17 19 19
14 15 16 16 16 17 17 17 17 17 17 17 17 18 18 18 15 13 15 18 19 19 19 19 19 19 17 16 19 20 19 18 15 14 14 15 15 15 15 19 22 23 23
14 15 16 17 17 17 17 17 17 17 17 17 18 18 18 18 15 13 15 19 20 20 19 18 17 18 16 16 19 20 20 19 18 18 18 18 17 18 17 18 21 24 23
16 15 15 16 18 17 17 17 16 16 17 18 19 19 19 19 16 12 14 18 19 19 19 19 18 17 16 15 15 18 18 17 18 19 20 20 20 20 19 18 18 19 22
16 15 15 15 16 17 17 18 18 18 19 20 20 21 20 19 15 12 13 16 16 19 19 19 18 15 15 15 15 15 15 16 21 23 24 23 22 21 20 19 18 18 17
16 17 17 15 16 17 17 18 19 19 19 21 21 21 21 19 17 13 12 14 15 18 18 18 17 14 14 15 15 15 18 20 22 25 24 23 21 20 19 19 19 18 18
19 19 18 17 15 16 17 17 19 19 19 20 20 20 21 20 18 15 14 15 15 18 17 18 17 16 16 19 18 17 20 21 22 23 23 22 21 21 21 20 21 20 20
20 20 20 19 17 16 17 17 18 17 17 18 19 19 20 21 19 15 14 16 17 18 18 18 19 20 21 22 22 22 22 22 22 23 23 23 22 21 21 20 20 21 21
22 21 20 20 19 17 17 17 15 14 15 14 14 16 18 16 16 14 13 13 14 15 21 22 23 23 23 23 23 23 23 23 23 23 23 23 23 22 22 21 20 21 21
24 23 22 22 21 20 17 17 19 17 13 14 13 13 14 16 15 14 13 13 13 16 21 22 23 23 23 23 23 23 24 23 23 24 24 24 23 23 22 22 21 20 21
24 23 23 22 22 21 19 17 17 19 19 16 14 13 13 15 15 14 13 13 15 18 22 23 24 23 23 24 24 24 24 25 24 24 24 25 25 24 24 23 21 21 21
24 24 23 22 21 21 20 17 18 19 19 17 17 14 14 13 14 14 13 15 17 23 23 23 23 24 25 25 26 26 26 27 26 26 27 26 25 25 24 23 21 21 20
23 23 22 22 22 21 20 16 17 19 20 19 17 16 16 16 16 16 14 16 20 22 23 25 26 26 26 26 27 27 28 28 28 28 27 26 25 25 23 23 22 21 20
22 22 21 21 21 20 18 16 17 18 18 18 17 15 14 16 16 15 17 21 22 23 24 26 27 27 28 29 29 29 29 28 28 28 28 27 25 25 23 22 22 19 20
21 21 21 21 20 19 16 16 16 17 17 16 15 14 11 14 17 21 21 22 23 24 24 26 27 27 28 28 29 28 28 29 30 29 28 26 25 25 24 22 20 20 21
19 19 20 20 19 17 17 16 16 16 15 15 15 14 16 20 20 22 24 24 25 26 26 26 27 28 29 29 29 28 28 29 28 29 30 27 26 25 23 22 20 22 22
17 19 20 19 17 17 18 18 17 17 17 16 18 20 20 21 23 24 24 25 26 27 27 28 27 27 28 29 30 30 30 30 30 30 29 27 26 25 22 20 22 22 22
20 20 19 19 19 19 19 19 19 18 19 20 22 22 23 23 24 25 25 25 26 27 28 28 28 29 28 28 28 29 28 25 26 26 26 26 24 22 21 22 23 23 24
22 22 22 22 21 21 21 21 20 22 23 23 22 22 23 23 24 25 26 26 27 27 28 28 28 27 27 27 27 25 23 21 22 22 22 20 17 20 21 24 25 24 24

GFSGL_con_lsi_033.txt.gz
Lid_Strength_Index
13 13 13 13 13 13 14 14 14 14 14 15 15 15 15 15 14 15 15 16 17 17 17 17 18 17 18 18 17 18 18 18 17 19 18 18 18 18 18 17 17 17 16
13 13 13 13 14 14 14 14 14 15 15 15 15 15 15 14 14 15 16 17 17 17 18 18 18 18 19 19 18 18 18 18 18 19 19 19 18 18 18 18 17 17 16
14 14 13 14 14 14 14 14 15 14 14 14 15 15 15 15 15 15 15 16 17 17 17 18 18 19 19 19 19 18 18 18 18 19 19 19 18 18 18 17 17 16 16
15 14 13 13 13 14 14 14 14 14 14 14 14 14 14 15 15 16 16 16 16 16 16 17 17 18 18 19 19 18 18 19 19 19 20 20 19 18 18 18 18 16 16
14 15 15 14 12 12 13 13 14 14 14 14 15 15 14 15 15 16 16 16 16 16 17 17 17 17 16 17 18 18 18 19 20 20 20 20 19 19 19 18 18 17 17
13 13 12 13 13 13 13 13 14 15 15 14 15 15 15 15 14 13 15 16 17 17 18 18 17 18 17 16 16 16 17 20 20 20 20 20 19 18 18 18 18 19 19
13 12 12 13 14 14 14 14 13 14 14 14 14 15 15 15 13 13 13 15 16 16 17 18 18 18 18 17 15 16 16 16 17 18 20 19 18 18 18 18 18 18 18
13 12 12 14 15 15 15 14 14 14 14 15 15 15 15 16 13 12 13 16 16 17 17 18 18 19 18 17 17 17 17 17 17 17 17 17 17 17 17 16 17 18 18
13 12 14 16 15 15 15 15 15 15 14 14 14 15 15 15 14 13 13 16 17 17 17 17 18 19 17 16 18 18 17 17 14 14 15 16 16 15 15 16 19 21 21
13 13 15 15 14 15 15 14 14 15 15 15 15 15 15 15 14 13 13 15 17 17 18 18 17 18 16 15 18 18 18 18 18 17 16 15 16 17 17 17 18 21 21
13 15 15 15 15 15 14 14 15 15 16 16 16 16 15 15 15 13 12 15 17 18 19 19 18 16 15 15 16 18 18 17 17 18 19 19 19 19 19 19 18 19 21
15 15 16 17 17 17 16 15 15 16 16 17 16 16 16 16 15 14 12 12 15 18 19 18 18 15 14 14 16 17 16 17 18 19 20 20 21 20 20 19 19 19 18
17 18 18 18 18 19 18 17 16 15 16 17 18 17 18 17 17 14 13 11 15 17 18 17 16 15 14 14 14 15 16 19 20 21 21 21 21 20 20 20 19 19 19
20 20 20 20 20 19 19 18 16 16 16 16 17 17 17 18 18 17 15 13 15 16 17 17 16 15 15 15 15 15 19 19 20 21 22 21 20 21 21 21 21 21 21
20 20 21 21 21 21 19 18 17 15 14 15 15 15 16 18 18 16 14 13 16 17 17 17 17 17 17 19 19 21 21 21 22 22 22 22 22 22 22 21 21 21 23
22 22 22 22 22 22 21 20 16 14 12 11 11 12 14 14 14 14 13 12 13 15 18 19 19 18 20 20 21 22 22 22 22 22 22 22 22 22 22 22 22 22 23
23 23 23 23 23 23 22 22 21 17 13 12 11 10 11 14 13 13 13 12 13 14 18 19 19 19 20 21 22 22 23 22 22 22 22 22 22 22 23 23 23 22 22
25 24 24 24 23 23 23 22 21 20 18 15 13 11 10 11 13 13 12 11 15 15 18 19 20 20 21 22 22 22 23 23 23 23 23 23 24 24 24 23 23 23 23
25 25 24 24 24 23 22 22 21 21 21 16 14 13 11 11 11 13 12 13 15 16 18 19 19 20 20 21 21 22 23 24 24 24 24 25 25 25 24 24 23 23 23
24 24 24 24 23 23 23 22 22 21 19 16 16 15 14 13 14 15 14 14 14 18 19 20 20 20 21 22 23 24 25 26 26 27 26 25 25 24 23 24 23 22 22
23 23 23 23 23 22 22 22 21 20 17 15 16 14 12 13 14 15 15 15 20 20 21 22 22 23 24 24 25 26 26 26 26 26 26 25 25 25 24 23 22 22 21
21 21 21 22 22 21 21 21 20 19 16 16 15 14 11 12 13 16 18 20 21 21 22 23 24 24 25 25 26 26 27 27 26 26 25 25 25 24 24 23 22 21 19
21 20 20 20 20 20 20 19 19 16 15 14 14 14 14 17 19 20 22 23 23 23 23 24 25 26 25 25 24 24 24 25 24 25 24 25 25 24 23 22 21 21 20
22 21 20 20 20 19 19 18 16 15 15 17 18 19 20 20 22 22 23 23 23 23 23 23 23 25 26 26 25 25 24 25 25 25 25 25 24 24 23 22 21 19 20
22 22 21 21 20 19 19 18 18 19 20 20 21 21 22 22 22 23 23 23 23 23 24 24 24 25 25 25 26 26 26 23 26 27 27 25 24 23 23 21 19 20 21
23 23 23 22 22 21 21 22 22 22 22 22 22 22 22 23 23 23 23 24 24 25 26 25 25 25 25 25 25 25 23 22 23 23 24 23 23 22 19 19 20 21 22

GFSGL_con_lsi_036.txt.gz
Lid_Strength_Index
11 11 11 11 11 11 11 10 10 10 10 10 11 11 11 11 12 12 12 12 13 13 13 13 12 12 12 12 13 14 15 15 14 18 17 16 15 16 16 16 15 15 15
11 11 11 11 12 12 12 12 11 11 11 11 11 11 12 12 12 13 13 13 14 14 13 13 13 14 13 14 15 16 16 16 15 18 18 18 18 17 16 17 17 17 16
11 11 11 11 12 13 13 12 12 12 12 11 12 12 12 12 13 13 13 12 13 13 13 13 14 14 15 15 16 17 17 17 16 16 18 17 17 17 17 17 17 16 16
12 12 12 12 12 13 14 13 13 13 13 12 12 12 12 12 13 13 13 13 13 13 13 13 14 15 15 15 16 16 17 16 17 17 17 19 18 17 17 17 17 16 16
13 13 13 12 12 13 14 14 13 13 13 12 13 12 12 12 13 14 14 13 13 13 13 14 14 14 14 14 16 16 16 16 17 18 18 19 19 19 18 17 17 16 15
14 13 12 12 13 15 14 14 13 12 12 12 13 12 12 12 12 11 13 14 14 14 14 14 15 15 15 14 14 14 15 16 18 18 18 19 18 17 17 17 17 18 17
12 12 12 11 13 14 14 13 13 13 13 12 11 11 11 11 11 11 12 14 14 14 14 15 16 15 15 15 14 14 14 14 15 16 17 17 17 17 17 18 17 17 17
12 12 12 12 14 14 13 13 13 13 14 13 12 11 11 12 11 11 12 13 14 14 14 15 15 16 16 16 15 15 16 16 16 16 16 16 16 15 16 16 16 16 16
11 12 11 13 15 14 15 13 13 13 13 13 12 12 12 12 11 11 11 13 14 14 14 14 15 15 15 14 16 16 17 17 15 15 15 15 15 15 16 16 18 19 19
11 11 11 12 14 14 14 14 13 12 12 12 12 11 12 13 12 12 12 12 13 14 14 15 14 15 15 14 16 16 18 18 17 17 16 15 15 16 16 16 16 18 19
12 12 12 13 14 14 14 14 14 14 13 12 12 11 12 13 12 12 12 12 12 13 14 15 16 14 15 14 14 16 16 16 16 16 16 16 16 16 16 16 17 18 19
13 14 14 15 15 15 16 16 16 15 14 14 12 12 12 12 13 12 12 12 11 13 14 15 16 15 14 14 14 15 14 15 16 17 17 18 18 18 18 18 18 18 17
15 16 16 16 17 17 17 17 17 16 16 14 12 13 13 12 13 13 12 12 12 12 14 15 15 15 14 14 13 14 15 17 17 19 19 19 19 19 19 20 19 19 19
18 18 17 18 18 18 17 17 17 17 16 15 13 13 13 13 14 15 15 14 13 12 14 15 15 15 14 14 14 16 16 18 18 19 20 19 20 20 21 20 20 20 20
20 20 20 19 19 19 19 18 17 17 16 16 15 13 13 14 13 14 14 15 14 13 15 16 16 16 16 16 16 17 17 18 19 19 20 21 21 21 21 21 21 21 22
23 22 22 22 21 21 21 21 17 16 15 14 14 13 13 11 11 11 12 12 12 12 16 17 17 16 16 16 17 19 19 19 20 21 21 21 21 21 21 21 21 21 22
25 24 24 23 23 23 23 23 23 19 16 15 14 13 12 11 10 11 11 11 11 12 16 17 16 16 16 16 19 20 21 20 21 21 21 21 21 21 22 22 21 21 22
25 25 24 24 24 24 23 23 23 22 22 20 16 14 12 10 10 9 10 11 12 13 15 15 15 15 17 18 19 19 20 21 22 22 22 22 22 22 23 23 22 22 22
24 23 23 23 23 23 23 23 23 22 22 21 19 17 15 11 10 9 9 12 13 13 14 14 14 16 17 18 19 20 21 22 22 22 23 23 22 22 22 22 22 22 22
23 22 22 21 22 22 22 22 22 22 21 20 19 17 14 12 12 11 10 11 12 12 14 15 16 17 17 18 19 21 22 22 23 23 23 23 23 22 23 23 22 22 22
22 21 20 19 20 21 21 21 21 21 20 20 18 16 11 12 12 12 10 10 11 13 16 17 18 18 19 20 21 22 22 22 23 23 23 23 23 23 22 22 22 23 22
21 21 20 19 18 19 19 19 19 19 19 19 17 14 11 12 11 11 11 13 14 15 16 18 19 20 20 21 22 22 23 23 23 23 23 23 23 23 22 22 22 21 21
22 22 21 19 17 17 18 18 19 18 18 17 14 12 12 14 14 15 16 16 16 17 18 19 21 22 21 21 20 21 22 22 22 22 22 22 23 22 22 21 21 21 20
22 22 21 20 18 18 18 17 16 16 15 14 15 16 16 17 18 18 18 18 18 19 19 20 21 22 22 22 21 21 21 21 21 21 21 22 22 22 21 21 20 20 19
22 22 22 22 21 20 19 19 18 18 18 18 19 19 19 20 20 19 20 20 19 20 20 20 20 21 21 22 22 22 21 22 22 22 22 21 21 21 21 20 20 18 18
23 23 23 23 22 22 21 21 21 20 20 20 20 20 20 21 21 20 20 20 21 21 21 20 21 21 21 22 22 22 21 21 23 23 22 22 21 21 20 20 18 18 18

GFSGL_con_lsi_042.txt.gz
Lid_Strength_Index
15 15 14 14 14 14 15 15 15 16 15 14 13 13 12 12 12 13 13 13 14 13 13 13 13 13 13 14 13 14 13 15 14 19 18 16 15 15 15 16 16 16 15
13 13 14 13 13 13 14 16 16 16 16 15 14 13 13 13 12 13 13 12 13 13 13 13 13 13 14 13 14 13 13 14 16 19 19 18 17 15 15 16 16 16 17
13 13 14 14 14 14 14 17 17 16 16 15 14 14 14 13 13 13 13 12 12 12 12 13 13 13 14 14 14 14 14 14 15 19 20 19 18 16 17 18 18 18 16
12 13 14 14 13 14 14 16 16 16 15 14 14 14 14 13 12 13 13 13 12 12 12 12 13 13 13 14 14 14 14 14 14 16 20 19 19 17 17 18 19 18 17
12 13 13 13 12 12 13 15 16 16 16 15 14 14 13 13 13 12 13 13 13 12 12 12 13 13 12 12 14 14 14 15 14 15 18 21 19 18 18 18 18 18 17
12 12 12 12 12 12 13 13 14 15 15 15 15 14 14 13 11 10 10 11 12 13 13 12 12 13 13 11 11 11 13 14 15 15 15 17 18 17 17 18 17 18 20
11 11 11 11 11 12 12 12 13 14 14 15 14 14 15 14 11 11 10 12 12 12 13 13 12 12 13 13 12 11 11 11 11 14 15 15 17 17 17 17 17 17 17
11 11 10 10 11 11 11 12 12 12 14 14 14 15 15 14 12 11 11 12 12 12 12 13 13 13 12 13 13 13 13 12 12 12 14 13 14 15 15 15 15 15 18
11 11 11 11 12 12 12 12 12 12 13 14 14 15 15 15 12 11 11 12 12 12 12 11 12 12 11 10 12 13 13 13 11 11 10 10 11 12 14 15 17 18 20
12 12 13 13 14 14 14 14 13 13 14 14 15 15 15 16 13 12 12 13 13 12 12 11 11 11 9 9 11 12 13 13 13 13 12 11 11 13 13 15 16 18 18
14 15 16 16 17 18 17 17 17 17 17 17 17 17 17 17 17 13 12 13 13 12 12 11 11 9 8 8 8 11 12 12 12 13 14 13 14 14 14 14 15 16 17
17 18 19 20 20 20 21 21 20 20 20 20 20 19 18 17 15 14 13 12 11 12 12 10 10 8 8 7 8 8 8 10 13 14 15 15 16 15 15 15 15 15 16
20 21 21 21 21 22 23 23 23 22 22 22 21 21 20 18 17 15 13 13 12 12 11 9 8 8 8 7 7 7 9 11 12 14 15 16 15 15 16 16 16 17 18
22 22 22 23 23 23 23 23 24 24 24 23 23 23 22 21 19 18 16 16 14 13 10 10 10 9 8 8 8 7 9 10 12 15 15 15 15 16 17 17 19 19 20
23 23 23 23 23 23 22 23 22 22 22 23 22 22 22 22 20 17 16 16 15 14 12 12 12 12 11 10 9 9 9 10 12 14 15 16 16 17 18 18 19 20 21
24 24 24 24 24 23 24 23 19 17 16 16 15 17 18 16 15 15 14 13 13 11 13 14 13 12 12 11 11 10 10 11 12 14 15 15 18 18 20 19 20 20 21
25 25 25 25 25 25 24 24 24 21 16 15 15 15 15 16 15 15 15 14 13 12 14 14 13 12 12 11 11 10 11 11 12 13 16 17 18 19 20 21 21 21 21
25 24 25 25 24 24 24 23 23 23 22 21 17 16 16 15 15 15 15 14 17 15 14 13 12 11 11 11 11 11 13 14 15 16 17 18 19 20 21 21 21 21 22
25 25 24 24 23 23 23 22 21 20 20 19 19 18 17 16 15 14 14 17 17 17 15 13 11 11 11 10 10 13 14 15 16 17 18 19 19 20 21 21 21 22 22
24 24 23 24 23 23 22 21 20 19 18 19 19 20 19 19 20 19 18 17 15 14 12 9 10 9 10 11 13 14 15 16 17 17 19 19 19 20 21 22 22 23 23
23 24 24 24 23 22 22 21 20 17 17 18 19 18 13 14 15 16 15 13 12 11 10 8 11 10 11 12 14 15 16 17 18 18 19 19 20 21 21 21 22 23 23
24 24 23 24 23 22 22 21 20 19 18 18 17 17 13 16 17 17 16 15 14 11 10 12 11 11 12 13 15 16 17 18 19 19 19 19 20 20 21 22 22 22 22
23 24 24 24 23 23 23 22 21 20 20 19 19 19 19 19 18 18 17 16 16 16 15 14 14 14 14 14 15 16 18 19 19 19 20 20 21 21 21 22 22 22 23
24 25 25 24 24 23 23 23 22 22 21 21 20 20 20 20 19 19 18 17 17 17 16 16 15 15 16 16 16 17 17 18 18 18 19 20 20 20 21 21 21 21 21
25 25 25 25 25 24 24 23 23 22 22 22 21 21 21 20 20 20 19 18 18 18 18 18 18 18 18 17 17 17 16 17 18 18 18 19 20 20 20 21 21 21 21
26 25 25 25 24 24 24 24 23 22 22 22 22 21 21 21 20 20 20 20 20 20 19 19 19 18 19 18 18 17 17 17 19 18 19 19 20 21 21 21 21 21 22

GFSGL_con_lsi_045.txt.gz
Lid_Strength_Index
13 15 15 15 15 14 15 15 16 17 17 17 17 16 15 15 14 15 15 15 15 15 15 14 14 13 13 13 14 13 13 14 15 13 18 17 16 15 15 14 15 15 14
13 13 14 14 15 16 16 16 16 16 16 16 16 16 15 15 15 15 15 15 15 15 15 15 14 12 14 13 13 14 14 13 14 15 18 19 18 15 15 15 16 15 16
14 14 14 15 15 15 14 15 15 15 15 15 15 15 15 15 15 15 15 15 15 15 15 14 13 13 13 13 13 13 13 13 13 14 14 19 18 16 17 16 16 16 17
12 13 14 14 13 14 14 14 14 14 14 15 14 15 15 14 14 14 14 15 16 15 14 14 13 12 12 13 13 13 13 13 13 14 14 20 18 18 16 17 19 17 17
13 13 13 12 13 13 13 13 13 13 13 14 15 14 14 14 14 14 14 14 15 15 14 13 12 12 11 10 12 12 13 14 13 14 15 19 19 19 18 17 17 17 17
13 13 12 12 11 11 11 12 12 12 12 13 13 14 14 14 12 11 12 13 13 14 14 13 13 13 12 9 9 9 10 12 13 13 14 14 15 16 17 17 17 18 21
11 11 11 11 11 11 11 11 11 11 12 12 13 13 14 14 12 11 12 13 13 13 13 13 14 13 13 12 10 9 9 9 9 11 13 13 13 15 16 17 17 16 16
11 12 11 11 11 11 11 12 12 12 12 12 13 13 13 13 11 11 11 13 14 14 14 14 13 13 12 12 12 12 11 11 11 10 11 11 11 12 15 15 16 15 16
12 13 13 14 15 15 15 15 15 15 15 15 14 14 14 14 11 11 12 13 14 15 14 14 14 14 12 10 12 12 12 11 9 9 9 9 9 9 13 14 16 17 19
14 15 15 16 17 18 18 18 18 18 18 18 18 18 17 18 15 14 13 15 16 16 15 15 13 13 11 10 11 12 12 12 11 11 11 10 9 10 10 13 14 16 16
16 17 17 18 19 20 20 20 21 21 20 21 21 20 20 19 19 16 15 16 17 17 17 16 14 11 11 10 9 10 11 10 9 10 11 12 11 11 11 12 13 14 15
18 19 20 21 21 21 22 22 22 23 23 23 23 23 21 20 18 17 15 14 14 16 17 16 15 12 11 9 9 8 8 8 8 10 11 11 12 12 11 12 13 13 12
21 22 22 22 22 22 23 23 23 23 23 23 23 23 22 20 20 18 16 16 16 17 17 15 13 13 12 10 8 8 8 9 8 9 11 11 11 10 10 12 13 14 16
23 22 22 22 23 23 23 23 23 24 24 23 24 23 23 22 20 19 20 20 18 18 17 17 16 13 12 11 10 9 10 9 8 8 9 10 10 10 11 12 15 16 16
22 22 23 23 24 24 23 23 23 22 21 21 20 19 19 19 18 15 15 16 17 17 17 17 17 16 15 14 12 11 10 9 9 8 9 10 10 11 12 12 14 16 17
22 22 23 24 25 24 24 24 20 18 17 15 14 15 15 13 13 13 13 13 13 13 16 18 18 17 16 15 13 11 9 9 9 8 8 10 11 11 12 13 14 16 18
23 22 23 24 25 25 25 25 25 22 17 16 15 13 12 12 12 12 12 12 12 13 17 18 18 17 16 15 12 11 10 9 8 8 9 10 11 11 13 14 15 17 18
22 22 23 24 25 25 25 24 24 24 24 22 16 14 13 12 12 12 12 12 16 16 18 19 18 17 16 14 13 11 9 9 9 9 10 10 11 13 15 15 16 17 19
22 23 23 23 23 23 24 23 23 23 22 21 18 15 15 13 12 12 12 16 18 18 18 18 18 17 16 14 11 9 9 9 10 10 11 12 12 14 15 16 17 17 19
23 22 22 24 24 24 23 23 23 22 22 20 19 18 17 16 17 17 16 16 16 16 17 17 16 14 13 13 10 8 9 10 11 12 12 13 14 14 16 17 17 19 20
22 23 24 24 24 24 23 23 22 22 22 22 21 19 14 18 19 18 18 17 16 17 17 13 12 11 9 9 9 10 11 12 12 13 14 15 15 17 17 17 18 19 20
24 24 24 25 24 24 24 23 23 23 22 23 22 20 16 20 20 19 18 18 17 16 15 14 13 12 11 11 11 12 12 13 14 15 16 16 17 17 18 19 19 20 21
24 25 25 25 25 24 24 24 23 23 22 22 22 22 21 21 20 20 19 18 17 17 16 15 14 14 13 13 12 13 14 14 15 15 16 17 18 19 19 20 20 21 21
26 26 26 26 25 25 25 24 23 23 22 22 22 22 21 21 21 20 19 19 18 18 17 17 16 16 15 15 14 14 14 15 15 16 16 17 18 18 19 19 19 20 20
28 27 27 27 26 26 25 25 24 23 23 22 22 22 22 21 21 20 20 19 19 19 18 17 17 16 16 15 15 15 15 15 16 16 17 17 18 18 19 19 20 20 20
29 29 29 27 27 26 25 25 24 23 23 22 22 22 22 22 21 21 20 20 19 19 19 18 17 16 16 15 15 15 14 15 17 17 17 18 19 19 19 20 20 20 21

GFSGL_con_lsi_048.txt.gz
Lid_Strength_Index
14 14 15 15 14 14 14 15 16 16 16 16 16 16 16 16 16 17 17 17 17 17 16 16 15 14 13 13 14 14 14 14 15 14 14 16 17 15 15 14 14 14 13
14 14 15 14 15 15 15 15 14 14 13 14 14 16 16 16 17 18 17 17 17 17 17 17 16 14 14 14 13 13 14 13 14 15 14 15 17 16 15 15 15 14 14
13 13 13 13 14 14 13 13 13 13 14 14 14 14 15 16 16 16 17 17 17 17 16 15 15 15 15 14 14 14 13 13 14 15 15 13 16 17 16 16 15 15 15
13 14 14 14 14 14 14 14 14 14 14 14 14 14 14 15 15 14 14 15 15 16 15 15 14 14 14 14 13 13 13 14 14 14 15 14 17 17 16 16 17 16 16
13 13 13 13 13 13 13 13 13 13 13 13 13 14 14 14 14 15 15 15 15 15 15 14 14 13 12 12 13 13 13 13 14 14 15 15 16 18 17 16 16 16 17
14 14 13 13 12 13 13 13 13 12 13 12 13 13 13 12 11 11 12 14 14 15 16 15 15 14 13 11 11 10 11 12 13 13 14 15 15 15 14 15 15 16 18
13 13 13 12 13 12 12 13 14 14 14 14 14 14 14 14 11 11 11 12 13 14 15 15 15 14 14 14 12 11 11 10 9 11 12 13 13 12 13 14 15 15 14
13 14 13 13 15 14 15 15 15 15 16 16 16 16 16 15 13 13 12 14 14 14 14 14 15 15 15 15 14 14 14 13 12 12 11 11 10 11 11 12 13 13 13
14 14 14 15 17 16 18 17 17 18 18 19 18 19 19 19 16 15 15 16 16 16 15 15 14 15 14 13 15 16 15 14 11 9 9 9 8 7 8 11 14 14 15
15 15 16 16 18 19 19 20 20 20 20 20 20 20 20 21 17 16 16 17 18 17 17 16 15 15 13 12 14 15 16 15 12 11 11 10 9 9 8 8 11 13 14
16 17 17 18 20 20 21 21 22 22 22 22 22 22 21 20 20 16 15 16 17 18 17 17 15 13 13 13 11 13 13 12 11 11 10 10 10 10 10 9 8 11 12
18 19 20 21 21 20 22 22 22 23 24 24 24 23 21 20 18 17 15 14 14 17 17 17 17 15 14 13 14 13 11 10 11 11 10 10 10 10 10 9 8 8 9
23 23 23 22 21 21 22 23 24 24 24 24 23 24 23 21 20 17 15 14 14 16 17 16 14 13 13 14 13 13 13 13 13 11 11 10 9 9 8 8 8 8 9
27 24 22 22 22 22 21 22 24 25 25 24 24 24 23 21 19 17 17 17 15 15 15 16 16 14 13 14 15 14 14 14 13 12 10 9 8 9 9 8 8 8 10
23 22 22 21 22 22 22 23 23 22 22 22 20 19 19 19 18 14 12 13 13 13 13 14 16 18 19 18 17 16 15 15 12 10 10 10 9 9 9 8 9 9 11
23 22 21 21 22 22 23 23 19 18 17 16 15 16 17 14 13 11 10 10 9 10 13 14 15 16 18 17 18 18 16 15 13 11 9 9 10 9 9 9 9 10 12
24 22 22 22 22 23 23 24 25 21 17 17 16 15 14 13 12 11 10 10 9 10 14 15 15 16 17 18 17 17 17 15 12 9 9 9 9 8 9 10 10 11 12
25 22 22 23 23 23 23 23 24 24 24 23 18 17 15 14 13 12 11 11 16 14 15 16 17 16 17 18 17 17 17 15 14 12 10 8 7 8 9 10 11 12 12
23 23 23 22 23 24 23 24 23 24 23 23 22 19 19 16 14 14 14 19 19 18 17 17 16 17 17 18 18 18 16 15 13 11 9 8 8 8 9 10 11 11 12
24 23 22 24 24 24 24 24 24 24 23 23 23 22 21 18 21 21 19 19 19 18 17 18 16 15 16 16 16 17 16 15 12 10 8 8 8 9 10 11 11 12 14
23 24 24 25 26 25 25 25 24 24 24 24 23 21 15 20 22 21 20 20 19 19 18 17 16 14 13 13 14 14 13 12 10 10 11 11 10 11 11 11 12 13 14
26 26 26 27 26 26 26 25 25 24 24 23 23 22 17 21 21 21 21 20 19 18 18 17 16 15 14 13 13 12 12 12 12 12 12 12 12 13 13 13 14 15 16
27 28 27 27 27 26 26 26 25 25 24 24 23 22 21 21 21 21 21 20 19 18 17 17 16 16 14 14 13 13 14 13 13 12 13 14 14 15 15 16 16 17 17
30 30 29 29 28 27 27 26 26 25 24 24 23 22 21 21 21 21 20 20 19 18 17 17 16 15 15 14 13 13 13 13 13 14 14 15 16 16 17 17 18 18 18
32 32 31 31 31 29 28 27 26 27 25 24 23 22 22 21 21 21 20 19 19 19 18 17 15 15 15 15 14 14 14 14 14 14 15 16 17 17 18 18 18 18 19
30 30 32 32 32 32 31 29 28 27 26 24 24 23 23 22 21 21 21 20 20 19 19 17 17 16 15 14 13 13 13 13 15 15 16 16 17 18 18 19 19 19 19